This demonstration page uses our WeatherBlox Daily Observations layout. Learn more.

Left ArrowRight Arrow

Hourly Observations for August 13, 2017

Temp ( °F °C ) Dew Point ( °F °C ) Humidity (%) Winds ( mph kmh ) Pressure ( in mb ) Visibility ( mi km ) Precip ( " mm )
12:51 am 00:51 Clear 77 25 63 17.2 62 62 ESE 9 15 29.86 1011 10 16.0934 0 0
1:51 am 01:51 Clear 76 24.4 63 17.2 64 64 E 15 24 29.86 1011 10 16.0934 0 0
2:51 am 02:51 Clear 76 24.4 62 16.7 62 62 E 15 24 29.84 1011 10 16.0934 0 0
3:51 am 03:51 Clear 75 23.9 62 16.7 64 64 E 8 13 29.86 1011 10 16.0934 0 0
4:51 am 04:51 Clear with Light Rain 72 22.2 65 18.3 79 79 NW 17 28 29.88 1012 10 16.0934 0 0.0254
5:51 am 05:51 Partly Cloudy 71 21.7 64 17.8 79 79 NNW 15 24 29.88 1012 10 16.0934 0 0.0254
6:51 am 06:51 Cloudy 70 21.1 66 18.9 87 87 W 7 11 29.88 1012 10 16.0934 0 0
7:51 am 07:51 Sunny 72 22.2 66 18.9 82 82 NNW 6 9 29.89 1012 10 16.0934 0 0
8:51 am 08:51 Sunny 75 23.9 65 18.3 71 71 WNW 12 19 29.91 1013 10 16.0934 0 0
9:51 am 09:51 Sunny 78 25.6 65 18.3 64 64 WNW 8 13 29.91 1013 10 16.0934 0 0
10:51 am 10:51 Sunny 80 26.7 64 17.8 58 58 VRB 5 7 29.9 1013 10 16.0934 0 0
11:51 am 11:51 Sunny 84 28.9 64 17.8 51 51 NW 10 17 29.87 1011 10 16.0934 0 0
12:51 pm 12:51 Sunny 89 31.7 61 16.1 39 39 W 10 17 29.83 1010 10 16.0934 0 0
1:51 pm 13:51 Sunny 91 32.8 58 14.4 33 33 WNW 10 17 29.79 1009 10 16.0934 0 0
2:51 pm 14:51 Sunny 91 32.8 59 15 34 34 W 9 15 29.76 1008 10 16.0934 0 0
3:51 pm 15:51 Sunny 93 33.9 58 14.4 31 31 WNW 15 24 29.75 1007 10 16.0934 0 0
4:51 pm 16:51 Sunny 92 33.3 58 14.4 32 32 W 18 30 29.74 1007 10 16.0934 0 0
5:51 pm 17:51 Sunny 90 32.2 56 13.3 32 32 W 17 28 29.73 1007 10 16.0934 0 0
6:51 pm 18:51 Sunny 87 30.6 58 14.4 37 37 W 12 19 29.75 1008 10 16.0934 0 0
7:51 pm 19:51 Clear 84 28.9 59 15 43 43 WNW 10 17 29.76 1008 10 16.0934 0 0
8:51 pm 20:51 Clear 82 27.8 60 15.6 47 47 NNW 10 17 29.78 1009 10 16.0934 0 0
9:51 pm 21:51 Clear 82 27.8 59 15 46 46 NW 12 19 29.79 1009 10 16.0934 0 0
10:51 pm 22:51 Clear 80 26.7 59 15 49 49 NW 10 17 29.81 1009 10 16.0934 0 0
11:51 pm 23:51 Mostly Cloudy 80 26.7 59 15 49 49 NNW 7 11 29.8 1009 10 16.0934 0 0

Powered by AerisWeather